sat.trackr.live / text

‹ back to catalog

STARLINK-3727

NORAD 52125 · 2022-029AP

PAYLOAD ACTIVE UNKNOWN

§ Identity

Operator
Country
US
Launch date
2022-03-19
Launch site
AFETR
Launch vehicle
Mass (kg)
RCS (m²)

Purposes: comms

External: N2YO · Heavens-Above · Gunter

§ Orbital elements

Epoch: 2026-09-20T00:40:33.627072Z

Period
93.90 min
Inclination
53.1597°
Eccentricity
0.0001388
Mean motion
15.33552613 rev/d
Perigee alt
464.3 km
Apogee alt
466.2 km
Semi-major
6,843.4 km
B*
-4.5173e-5
RAAN
271.7311°
Arg perigee
50.1258°
Mean anomaly
309.9866°
Rev number
25,033

§ Raw data

STARLINK-37271 52125U 22029AP  26263.02816698 -.00001858  00000+0 -45173-4 0  99962 52125  53.1597 271.7311 0001388  50.1258 309.9866 15.33552613250338

JSON: /api/v1/satellites/52125 · /tle

For live sub-satellite position, see the globe view (requires WebGL).

§ Visibility from observer

Set your observer location to see the next 7 days of passes ≥ 10°. The values pass through the URL so the page stays shareable.

No JS? Fill the form by hand. The geolocation button needs JavaScript.